ATHENOXAT 1

Last updated on Wed Aug 09 2023 01:03:37 GMT+0100 (British Summer Time)

1 41168U 15077C 23220.21009116 .06572845 -26831-4 29861-2 0 9999 2 41168 14.9793 162.8280 0006464 225.5634 134.4173 16.20657869424530

Satellite not in orbit